Regional Weather Roundup
Issued by NWS Sioux Falls, SD

Home | Current Version | Previous Version | Text Only | Print | Product List | Glossary On
Versions: 1 2 3 4 5 6 7 8 9 10 11 12 13 14 15 16 17 18 19 20 21 22 23 24 25 26 27 28 29 30 31 32 33 34 35 36 37 38 39 40 41 42 43 44 45 46 47 48 49 50
000
ASUS43 KFSD 230010
RWRFSD

WEATHER ROUNDUP FOR SE SOUTH DAKOTA/SW MINNESOTA/NW IOWA
NATIONAL WEATHER SERVICE SIOUX FALLS SD
700 PM CDT TUE JUL 22 2014

NOTE: "FAIR" INDICATES FEW OR NO CLOUDS BELOW 12,000 FEET WITH NO
SIGNIFICANT WEATHER AND OR OBSTRUCTIONS TO VISIBILITY.


SDZ038>040-050-052>070-230100-
SOUTHEAST SOUTH DAKOTA

CITY           SKY/WX    TMP DP  RH WIND       PRES   REMARKS
CHAMBERLAIN    SUNNY     83  57  41 NE7       30.18S
6HR MIN TEMP:  78; 6HR MAX TEMP:  85;

HURON          SUNNY     81  58  45 NE8       30.17S
6HR MIN TEMP:  79; 6HR MAX TEMP:  83;

MADISON        FAIR      77  59  53 NE8       30.20S
MITCHELL       SUNNY     82  61  48 MISG      30.18R
6HR MIN TEMP:  79; 6HR MAX TEMP:  85;

SIOUX FALLS    MOSUNNY   81  60  48 N12       30.17S
6HR MIN TEMP:  78; 6HR MAX TEMP:  82;

WINNER         FAIR      86  59  39 E9        30.18S
YANKTON        SUNNY     82  63  51 N8        30.16R
$$

MNZ071-072-080-081-089-090-097-098-230100-
SOUTHWEST MINNESOTA

CITY           SKY/WX    TMP DP  RH WIND       PRES   REMARKS
FAIRMONT       SUNNY     81  55  41 NW12      30.12S
JACKSON        SUNNY     79  54  41 N9G17     30.15S
LUVERNE        SUNNY     81  57  44 N8G16     30.17S
MARSHALL       SUNNY     77  54  44 N14       30.16S
6HR MIN TEMP:  77; 6HR MAX TEMP:  81;

MONTEVIDEO     SUNNY     79  57  47 N10G16    30.17S
PIPESTONE      SUNNY     79  55  44 N8        30.19S
REDWOOD FALLS  SUNNY     80  55  42 N13       30.14R
TRACY          SUNNY     78  58  50 N10       30.17R
WINDOM         SUNNY     79  55  44 NW13      30.16R
WORTHINGTON    SUNNY     77  59  53 N12       30.18S
$$

IAZ001>003-012>014-020>022-031-032-NEZ013-014-SDZ071-230100-
NORTHWEST IOWA

CITY           SKY/WX    TMP DP  RH WIND       PRES   REMARKS
CHEROKEE       MOSUNNY   81  63  53 N12       30.13R
DENISON        PTSUNNY   81  70  69 N10G18    30.09S
ESTHERVILLE    SUNNY     80  59  48 N13       30.13R
LE MARS        SUNNY     81  63  54 N7G14     30.15R
ORANGE CITY    SUNNY     82  57  42 N8        30.15S
SHELDON        SUNNY     79  61  53 N9G16     30.14S
SIOUX CITY     SUNNY     84  67  56 N12       30.13R
6HR MIN TEMP:  81; 6HR MAX TEMP:  87; 6HR PCP: TRACE;

SPENCER        MOSUNNY   79  61  53 N13       30.14R
6HR MIN TEMP:  79; 6HR MAX TEMP:  84;

STORM LAKE     PTSUNNY   81  66  61 N12G17    30.14R
$$

ABBREVIATIONS USED IN REMARKS
   TC - TEMPERATURE IN CELSIUS
  WCI - WIND CHILL INDEX
   HX - HEAT INDEX
  VSB - VISIBILITY



USA.gov is the U.S. government's official web portal to all federal, state and local government web resources and services.